{"data":{"norad_id":69123,"epoch":"2026-09-17T05:25:41.305728Z","epoch_age_seconds":297284,"freshness":"STALE","line1":"1 69123U 26109A   26260.22617252  .00000590  00000+0  00000+0 0  9994","line2":"2 69123  70.0141 206.2461 8169204 285.7290   5.5729  0.47508927   381","mean_motion":0.47508927,"eccentricity":0.8169204,"inclination_deg":70.0141,"raan_deg":206.2461,"arg_perigee_deg":285.729,"mean_anomaly_deg":5.5729,"bstar":0,"rev_number":38,"period_min":3031.0093090505,"perigee_km":6323.4595834094,"apogee_km":119675.17502912,"semimajor_km":69377.454306266,"source":"CELESTRAK","updated_at":"2026-09-20T09:00:47.177069Z"}}